[[{"header":{"parameterUnit":"m.s-1","parameterCategory":1,"la1":30.2991,"la2":30.254,"lo1":-89.0895,"lo2":-89.0444,"dy":0.0017,"dx":0.0017,"nx":28,"ny":28,"refTime":"2024-03-14T21:00:00:Z","depth":0,"parameterNumber":2,"parameterNumberName":"U-component_of_WINDS"},"data":[0,0,0,0,0,0,0,0,0,0,0,0,0,0,0,0,0,0,0,0,0,0,0,0,0,0,0,0,0,0,0,0,0,0,0,0,0,0,0,0,0,0,0,0,0,0,0,0,0,0,0,0,0,0,0,0,0,0,-0.3984,-0.3984,0,-0.4009,-0.4009,-0.4009,-0.403,-0.403,-0.403,-0.403,-0.4055,-0.4056,-0.4056,0,0,0,0,0,0,0,0,0,0,0,0,0,-0.3954,-0.3954,-0.3984,-0.3984,-0.3985,-0.4009,-0.4009,-0.4009,-0.403,-0.403,-0.403,-0.4031,-0.4055,-0.4056,-0.4056,0,0,0,0,0,0,0,0,0,0,0,0,0,-0.3971,-0.3954,-0.3984,-0.3998,-0.3999,-0.4009,-0.4009,-0.4009,-0.403,-0.403,-0.403,-0.4031,-0.4055,-0.4055,-0.4056,-0.4054,0,0,-0.4058,-0.4058,0,0,0,0,0,0,0,0,-0.397,-0.3972,-0.3995,-0.3997,-0.3999,-0.4017,-0.4007,-0.4024,-0.403,-0.4018,-0.403,-0.4031,-0.4042,-0.4044,-0.4048,-0.4055,-0.4056,-0.4058,-0.4059,-0.4059,-0.4059,0,0,0,0,0,0,0,-0.3969,-0.3972,-0.3994,-0.3996,-0.3998,-0.4002,-0.4005,-0.4011,-0.4028,-0.4019,-0.4021,-0.4023,-0.4043,-0.4047,-0.4048,-0.4056,-0.4058,-0.4059,-0.4059,-0.406,-0.4062,-0.4062,0,0,0,0,0,0,-0.3966,-0.397,-0.3993,-0.3995,-0.3985,-0.4003,-0.4006,-0.401,-0.4028,-0.4031,-0.4023,-0.4024,-0.4046,-0.4048,-0.4049,-0.4047,-0.4059,-0.406,-0.406,-0.4062,-0.4062,-0.4061,0,0,0,0,0,0,-0.3965,-0.3968,-0.3992,-0.3983,-0.3986,-0.4003,-0.4008,-0.4011,-0.4015,-0.4031,-0.4034,-0.4024,-0.4046,-0.4048,-0.4052,-0.4048,-0.406,-0.406,-0.4063,-0.4062,-0.4062,-0.4043,0,0,0,0,0,0,-0.3964,-0.3967,-0.3967,-0.3983,-0.3987,-0.3995,-0.4008,-0.4011,-0.4016,-0.4018,-0.4033,-0.4035,-0.4046,-0.4051,-0.4053,-0.405,-0.4061,-0.4063,-0.4062,-0.4062,-0.4044,-0.4042,-0.404,0,0,0,0,0,-0.3963,-0.3961,-0.3967,-0.3969,-0.3987,-0.3995,-0.3997,-0.401,-0.4016,-0.4015,-0.4025,-0.4035,-0.4048,-0.4051,-0.4054,-0.405,-0.4063,-0.4063,-0.4062,-0.4045,-0.4043,-0.4041,0,0,0,0,0,0,-0.3944,-0.3963,-0.397,-0.3973,-0.3982,-0.3998,-0.3998,-0.4007,-0.4014,-0.4016,-0.4031,-0.4034,-0.4036,-0.4044,-0.4047,-0.4048,-0.4057,-0.4057,-0.4044,-0.4041,-0.404,-0.4038,-0.4062,0,0,0,0,0,-0.394,-0.3945,-0.3962,-0.3963,-0.3967,-0.3981,-0.3986,-0.3995,-0.4005,-0.4009,-0.4019,-0.4028,-0.4034,-0.4038,-0.4045,-0.4045,-0.4049,-0.4044,-0.4042,-0.404,-0.404,-0.404,-0.4038,-0.4059,-0.4059,-0.4059,0,0,-0.3932,-0.3943,-0.3946,-0.3959,-0.3967,-0.3972,-0.3985,-0.3989,-0.3993,-0.4009,-0.4014,-0.4021,-0.4033,-0.4035,-0.4036,-0.4041,-0.4035,-0.4039,-0.4038,-0.4039,-0.4039,-0.4037,-0.4036,-0.4058,-0.4059,-0.4059,0,0,-0.392,-0.3929,-0.3931,-0.3939,-0.3951,-0.396,-0.3961,-0.3975,-0.3981,-0.3986,-0.3998,-0.4002,-0.4013,-0.402,-0.4025,-0.4015,-0.4024,-0.4017,-0.4007,-0.4007,-0.4005,-0.4004,-0.4,-0.3998,-0.4016,-0.4016,-0.4016,0,-0.3909,-0.3917,-0.3931,-0.3934,-0.394,-0.3954,-0.3956,-0.3963,-0.3976,-0.3979,-0.3984,-0.3998,-0.4006,-0.401,-0.4007,-0.4011,-0.4012,-0.4016,-0.4004,-0.4003,-0.4002,-0.3999,-0.3997,-0.4015,-0.4015,-0.4015,-0.4016,0,-0.3902,-0.3908,-0.3907,-0.392,-0.3925,-0.3928,-0.3941,-0.3945,-0.3953,-0.3962,-0.3966,-0.3977,-0.3986,-0.3987,-0.3995,-0.3992,-0.3994,-0.4002,-0.4011,-0.3999,-0.3996,-0.3995,-0.4014,-0.4014,-0.4015,-0.4015,0,0,-0.388,-0.39,-0.3899,-0.3905,-0.3919,-0.3923,-0.3926,-0.3935,-0.3937,-0.3946,-0.3949,-0.3957,-0.3963,-0.3969,-0.3978,-0.3978,-0.3969,-0.3985,-0.3986,-0.3982,-0.3965,-0.396,-0.3958,-0.3975,-0.3975,-0.3974,-0.3964,0,-0.3871,-0.3877,-0.3889,-0.3891,-0.3896,-0.391,-0.3912,-0.3921,-0.3929,-0.3934,-0.3942,-0.3948,-0.3956,-0.396,-0.396,-0.397,-0.3966,-0.3971,-0.3977,-0.3977,-0.3974,-0.3957,-0.3951,-0.3941,-0.3963,-0.3963,-0.3963,0,-0.3861,-0.3868,-0.3871,-0.3884,-0.3887,-0.3889,-0.3897,-0.3902,-0.3912,-0.3917,-0.3923,-0.3933,-0.3936,-0.3944,-0.3948,-0.3952,-0.3955,-0.396,-0.3959,-0.3961,-0.397,-0.3957,-0.3938,-0.3937,-0.3961,-0.3961,-0.3961,0,-0.3844,-0.3855,-0.3858,-0.3863,-0.3878,-0.3879,-0.3885,-0.3895,-0.39,-0.3907,-0.391,-0.3917,-0.3921,-0.3926,-0.3938,-0.3942,-0.3941,-0.395,-0.3945,-0.3945,-0.3945,-0.3945,-0.3926,-0.3946,-0.3946,-0.3946,-0.3946,0,-0.3833,-0.3834,-0.3851,-0.3853,-0.3854,-0.3867,-0.3868,-0.3876,-0.3885,-0.3888,-0.39,-0.3902,-0.3917,-0.3921,-0.393,-0.3932,-0.3934,-0.3938,-0.3941,-0.3937,-0.3937,-0.394,-0.3941,-0.3946,-0.3946,-0.3946,-0.3946,0,-0.3815,-0.3826,-0.383,-0.3844,-0.3848,-0.3848,-0.386,-0.3862,-0.387,-0.3874,-0.3876,-0.3889,-0.3895,-0.3906,-0.3915,-0.3921,-0.3921,-0.3925,-0.3917,-0.3919,-0.3914,-0.3914,-0.3897,-0.3895,-0.3916,-0.3916,-0.3916,0,-0.3807,-0.3808,-0.3822,-0.3825,-0.3831,-0.3835,-0.384,-0.3852,-0.3856,-0.3867,-0.3867,-0.3874,-0.388,-0.3888,-0.3898,-0.3904,-0.3909,-0.3902,-0.391,-0.3906,-0.3909,-0.3909,-0.3909,-0.39,-0.39,-0.39,-0.39,0,-0.3791,-0.3797,-0.3803,-0.381,-0.3815,-0.3821,-0.3828,-0.383,-0.3844,-0.3848,-0.3854,-0.3858,-0.3867,-0.3873,-0.3881,-0.3887,-0.3895,-0.3897,-0.3896,-0.3893,-0.3889,-0.3891,-0.3913,-0.3898,-0.3898,-0.3898,-0.3898,-0.3898,-0.3778,-0.378,-0.379,-0.3795,-0.3802,-0.3808,-0.3811,-0.3819,-0.3824,-0.3832,-0.3839,-0.3844,-0.3853,-0.3864,-0.387,-0.3874,-0.3878,-0.3877,-0.3877,-0.3877,-0.3875,-0.3888,-0.3875,-0.3875,-0.3875,-0.3875,-0.3875,0,-0.3764,-0.377,-0.3775,-0.3785,-0.3789,-0.3797,-0.3805,-0.3808,-0.3812,-0.382,-0.3825,-0.3831,-0.3837,-0.3847,-0.3854,-0.3855,-0.3859,-0.3856,-0.3856,-0.3857,-0.3871,-0.3871,-0.3853,-0.3853,-0.3853,-0.3853,-0.3853,-0.3853,-0.3756,-0.3759,-0.3766,-0.3772,-0.3778,-0.3783,-0.3787,-0.3793,-0.3799,-0.3805,-0.381,-0.3816,-0.3825,-0.3832,-0.3837,-0.384,-0.3842,-0.3838,-0.3842,-0.3854,-0.3856,-0.3859,-0.3859,-0.3838,-0.3838,-0.3828,-0.3828,-0.3828]},{"header":{"parameterUnit":"m.s-1","parameterCategory":1,"la1":30.2991,"la2":30.254,"lo1":-89.0895,"lo2":-89.0444,"dy":0.0017,"dx":0.0017,"nx":28,"ny":28,"refTime":"2024-03-14T21:00:00:Z","depth":0,"parameterNumber":3,"parameterNumberName":"V-component_of_WINDS"},"data":[0,0,0,0,0,0,0,0,0,0,0,0,0,0,0,0,0,0,0,0,0,0,0,0,0,0,0,0,0,0,0,0,0,0,0,0,0,0,0,0,0,0,0,0,0,0,0,0,0,0,0,0,0,0,0,0,0,0,-4.8011,-4.8011,0,-4.8044,-4.8044,-4.8045,-4.7991,-4.7989,-4.7987,-4.7985,-4.8016,-4.8018,-4.802,0,0,0,0,0,0,0,0,0,0,0,0,0,-4.7896,-4.7899,-4.8011,-4.8011,-4.8011,-4.8044,-4.8044,-4.8045,-4.7991,-4.7989,-4.7987,-4.7985,-4.8015,-4.8018,-4.8021,0,0,0,0,0,0,0,0,0,0,0,0,0,-4.7939,-4.79,-4.801,-4.7989,-4.7987,-4.8044,-4.8044,-4.8045,-4.7992,-4.7989,-4.7986,-4.7984,-4.8014,-4.8017,-4.8021,-4.81,0,0,-4.8033,-4.8034,0,0,0,0,0,0,0,0,-4.7937,-4.7944,-4.7991,-4.799,-4.7989,-4.8011,-4.8015,-4.8063,-4.7992,-4.799,-4.7985,-4.7982,-4.8016,-4.8019,-4.8031,-4.8101,-4.8102,-4.8033,-4.8035,-4.8037,-4.8038,0,0,0,0,0,0,0,-4.7934,-4.7942,-4.8024,-4.7992,-4.799,-4.7976,-4.7979,-4.8024,-4.8018,-4.799,-4.7986,-4.7991,-4.8014,-4.8028,-4.8032,-4.8103,-4.8033,-4.8036,-4.8039,-4.804,-4.8238,-4.8241,0,0,0,0,0,0,-4.7934,-4.794,-4.8023,-4.8025,-4.7956,-4.798,-4.7984,-4.8006,-4.8017,-4.8016,-4.7993,-4.7988,-4.8023,-4.8027,-4.8033,-4.8125,-4.8037,-4.804,-4.8043,-4.8235,-4.8239,-4.8242,0,0,0,0,0,0,-4.7932,-4.7942,-4.8021,-4.7981,-4.799,-4.7985,-4.8011,-4.8008,-4.8022,-4.802,-4.8018,-4.8008,-4.8021,-4.8027,-4.8084,-4.8125,-4.8042,-4.8046,-4.8232,-4.8236,-4.824,-4.8311,0,0,0,0,0,0,-4.7929,-4.7942,-4.7972,-4.7982,-4.7993,-4.8073,-4.8013,-4.8011,-4.8029,-4.8023,-4.8034,-4.8033,-4.8019,-4.8078,-4.8087,-4.8129,-4.8048,-4.8228,-4.8234,-4.8239,-4.8305,-4.8318,-4.8328,0,0,0,0,0,-4.7925,-4.799,-4.7974,-4.7985,-4.8031,-4.8076,-4.8081,-4.8066,-4.8032,-4.8063,-4.8061,-4.8032,-4.812,-4.8084,-4.8094,-4.8138,-4.8225,-4.8232,-4.8239,-4.83,-4.8315,-4.8328,0,0,0,0,0,0,-4.7983,-4.7991,-4.7973,-4.8044,-4.806,-4.8066,-4.8104,-4.8082,-4.8107,-4.81,-4.8078,-4.8081,-4.8142,-4.8145,-4.8106,-4.8214,-4.8167,-4.8176,-4.821,-4.8224,-4.8236,-4.8233,-4.8052,0,0,0,0,0,-4.8005,-4.8042,-4.8046,-4.8107,-4.8116,-4.8109,-4.8128,-4.8115,-4.8129,-4.8135,-4.8138,-4.8153,-4.8183,-4.8204,-4.8232,-4.8305,-4.8307,-4.834,-4.8352,-4.8361,-4.8369,-4.8408,-4.8423,-4.8264,-4.8264,-4.8264,0,0,-4.8048,-4.8057,-4.8081,-4.8119,-4.813,-4.8168,-4.8115,-4.8157,-4.8184,-4.8141,-4.8195,-4.8198,-4.8212,-4.8278,-4.8307,-4.8283,-4.8414,-4.837,-4.8377,-4.838,-4.8417,-4.8432,-4.8445,-4.8269,-4.8268,-4.8267,0,0,-4.8147,-4.8158,-4.8211,-4.8223,-4.8241,-4.8236,-4.8248,-4.8259,-4.8259,-4.8313,-4.8282,-4.8314,-4.8367,-4.8379,-4.8392,-4.8497,-4.8471,-4.8506,-4.8567,-4.8605,-4.8618,-4.8629,-4.8666,-4.868,-4.8514,-4.8515,-4.8515,0,-4.8199,-4.8256,-4.824,-4.8285,-4.8302,-4.8267,-4.8319,-4.8332,-4.8357,-4.8369,-4.8342,-4.8409,-4.8416,-4.8484,-4.851,-4.8521,-4.8535,-4.8505,-4.8617,-4.8628,-4.8638,-4.8673,-4.8688,-4.8519,-4.8518,-4.8518,-4.8517,0,-4.8319,-4.8359,-4.8399,-4.8426,-4.8448,-4.8496,-4.8487,-4.851,-4.8495,-4.8493,-4.8548,-4.8556,-4.8585,-4.86,-4.8585,-4.8666,-4.8651,-4.8621,-4.8573,-4.8658,-4.8691,-4.8704,-4.8525,-4.8523,-4.8522,-4.8521,0,0,-4.8454,-4.8474,-4.8489,-4.8501,-4.8518,-4.8548,-4.8594,-4.8625,-4.8645,-4.8664,-4.8702,-4.8748,-4.8721,-4.8736,-4.8722,-4.8756,-4.8839,-4.8722,-4.8722,-4.8744,-4.8928,-4.895,-4.8966,-4.8822,-4.8824,-4.8826,-4.8927,0,-4.8553,-4.8635,-4.8623,-4.8702,-4.8738,-4.8706,-4.8746,-4.876,-4.8759,-4.8789,-4.8787,-4.8821,-4.8782,-4.8791,-4.8823,-4.8822,-4.8875,-4.8815,-4.8856,-4.8858,-4.8854,-4.8983,-4.9007,-4.9101,-4.8939,-4.8942,-4.8943,0,-4.8679,-4.8705,-4.8788,-4.88,-4.8815,-4.8852,-4.8879,-4.8908,-4.8923,-4.892,-4.8938,-4.8918,-4.8963,-4.8915,-4.8976,-4.8935,-4.8951,-4.8953,-4.8957,-4.896,-4.8906,-4.899,-4.9131,-4.9145,-4.8963,-4.8962,-4.896,0,-4.877,-4.8825,-4.8882,-4.8893,-4.8909,-4.8936,-4.8943,-4.8956,-4.8975,-4.8998,-4.901,-4.9038,-4.9053,-4.9074,-4.9062,-4.9028,-4.9126,-4.9076,-4.9124,-4.9124,-4.9146,-4.9144,-4.9291,-4.9157,-4.9156,-4.9156,-4.9156,0,-4.8882,-4.8934,-4.8923,-4.8958,-4.9015,-4.9,-4.9056,-4.906,-4.9072,-4.9106,-4.9079,-4.9111,-4.9093,-4.9124,-4.9114,-4.9167,-4.9174,-4.9172,-4.9169,-4.9174,-4.9175,-4.9184,-4.9177,-4.916,-4.9159,-4.9158,-4.9158,0,-4.8992,-4.8988,-4.9048,-4.9058,-4.9062,-4.9104,-4.9112,-4.9145,-4.9142,-4.9186,-4.9195,-4.919,-4.9225,-4.9215,-4.9252,-4.9246,-4.9313,-4.9301,-4.9308,-4.9305,-4.9354,-4.9349,-4.9512,-4.9532,-4.9384,-4.9386,-4.9387,0,-4.9064,-4.9103,-4.9119,-4.9141,-4.9151,-4.9187,-4.9207,-4.9193,-4.9214,-4.9236,-4.9265,-4.9298,-4.9324,-4.9381,-4.938,-4.9408,-4.9397,-4.9452,-4.9401,-4.9405,-4.9398,-4.9395,-4.9399,-4.9462,-4.9464,-4.9465,-4.9466,0,-4.9191,-4.9187,-4.9218,-4.9249,-4.9274,-4.9296,-4.9316,-4.9335,-4.9323,-4.9348,-4.9385,-4.9405,-4.9444,-4.9477,-4.9503,-4.9509,-4.9485,-4.9482,-4.9495,-4.9501,-4.9504,-4.9503,-4.9336,-4.9479,-4.9477,-4.9476,-4.9476,-4.9475,-4.9284,-4.9318,-4.9335,-4.937,-4.9384,-4.9404,-4.9435,-4.9437,-4.9468,-4.95,-4.9489,-4.9531,-4.9545,-4.9578,-4.9588,-4.9619,-4.9598,-4.9616,-4.9621,-4.9625,-4.9632,-4.9499,-4.9624,-4.9623,-4.9623,-4.9623,-4.9622,0,-4.941,-4.942,-4.9452,-4.9483,-4.951,-4.9488,-4.9509,-4.9533,-4.9571,-4.9587,-4.9613,-4.9655,-4.9687,-4.9689,-4.9719,-4.9743,-4.9733,-4.9752,-4.9749,-4.9751,-4.9649,-4.9635,-4.9759,-4.9759,-4.9759,-4.9759,-4.9759,-4.9759,-4.9479,-4.9535,-4.9533,-4.9596,-4.9605,-4.9647,-4.9661,-4.9679,-4.9692,-4.9741,-4.9768,-4.9769,-4.978,-4.981,-4.9838,-4.9838,-4.985,-4.9872,-4.9868,-4.9772,-4.9758,-4.9745,-4.9732,-4.9875,-4.9875,-4.9968,-4.9968,-4.9969]}]]